Date String (YYYY-MM-DD hh:mm:ss) UTC,Instrument flags,Ambient pressure (hPa),Sample flow (lpm),Bypass flow (lpm),Sample temperature (°C),Ambient temperature (°C),ASC tube jacket temperature (°C),LED temperature (°C),Box temperature (°C),Sample RH (%),Span deviation,Mass concentration (μg/m³),Mass concentration (μg/m³),Mass concentration (μg/m³)
DateTimeUTC,F1_M11,P_M11,Q1_M11,Q2_M11,T1_M11,T2_M11,T3_M11,T4_M11,T5_M11,U1_M11,ZSPAN_M11,X0_M11,X2_M11,X1_M11
2022-08-04 14:00:00,,0829.2,5.01,0.00,29.8,28.4,00.0,38.6,31.7,29.2,0001.3,0013.81,0008.86,0008.05
2022-08-04 14:01:00,,0829.2,5.01,0.00,29.8,28.5,00.0,38.6,31.7,29.4,0001.1,0013.84,0008.84,0008.04
2022-08-04 14:02:00,,0829.3,5.00,0.00,29.8,28.6,00.0,38.6,31.7,29.7,0001.2,0013.77,0008.84,0008.03
2022-08-04 14:03:00,,0829.2,5.01,0.00,29.8,28.7,00.0,38.6,31.7,28.9,0000.7,0013.42,0008.88,0008.04
2022-08-04 14:04:00,,0829.2,5.01,0.00,29.8,28.7,00.0,38.6,31.7,28.8,0000.6,0012.93,0008.92,0008.06
2022-08-04 14:05:00,,0829.2,5.00,0.00,29.9,28.8,00.0,38.6,31.8,28.6,0000.8,0012.95,0008.92,0008.07
2022-08-04 14:06:00,,0829.3,4.99,0.00,29.9,28.9,00.0,38.7,31.9,28.4,0001.2,0012.93,0008.93,0008.07
2022-08-04 14:07:00,,0829.3,4.99,0.00,29.9,28.9,00.0,38.7,31.9,29.1,0001.4,0013.04,0008.95,0008.07
2022-08-04 14:08:00,,0829.2,5.00,0.00,29.9,29.0,00.0,38.7,31.9,29.5,0001.6,0012.81,0008.92,0008.05
2022-08-04 14:09:00,,0829.3,5.00,0.00,30.0,29.0,00.0,38.7,31.9,29.3,0001.7,0012.82,0008.88,0008.04
2022-08-04 14:10:00,,0829.3,4.98,0.00,30.0,28.5,00.0,38.7,31.9,30.4,0001.6,0013.12,0008.87,0008.02
2022-08-04 14:11:00,,0829.3,5.01,0.00,29.9,27.9,00.0,38.6,31.7,30.2,0001.2,0013.37,0008.90,0008.02
2022-08-04 14:12:00,,0829.3,4.99,0.00,29.9,27.7,00.0,38.6,31.7,29.7,0001.1,0013.73,0008.93,0008.01
2022-08-04 14:13:00,,0829.3,5.00,0.00,29.8,27.7,00.0,38.6,31.6,30.3,0001.5,0014.12,0008.91,0008.02
2022-08-04 14:14:00,,0829.3,5.01,0.00,29.8,27.8,00.0,38.6,31.5,30.2,0001.9,0014.09,0008.92,0008.02
2022-08-04 14:15:00,,0829.2,4.99,0.00,29.8,27.9,00.0,38.6,31.6,29.8,0001.9,0014.21,0008.91,0008.02
2022-08-04 14:16:00,,0829.2,4.99,0.00,29.8,28.0,00.0,38.6,31.6,29.6,0002.1,0014.54,0008.92,0008.02
2022-08-04 14:17:00,,0829.3,5.00,0.00,29.8,28.2,00.0,38.6,31.6,29.4,0002.2,0015.17,0008.90,0008.01
2022-08-04 14:18:00,,0829.2,5.01,0.00,29.8,28.3,00.0,38.6,31.7,29.4,0001.9,0015.13,0008.89,0008.01
2022-08-04 14:19:00,,0829.2,5.00,0.00,29.8,28.4,00.0,38.6,31.7,29.2,0001.6,0015.11,0008.86,0008.00
2022-08-04 14:20:00,,0829.2,5.00,0.00,29.8,28.5,00.0,38.6,31.7,30.2,0001.5,0015.00,0008.88,0007.99
2022-08-04 14:21:00,,0829.2,5.00,0.00,29.8,28.6,00.0,38.6,31.8,29.8,0001.4,0014.55,0008.88,0008.00
2022-08-04 14:22:00,,0829.2,4.99,0.00,29.8,28.7,00.0,38.6,31.8,30.3,0002.0,0014.30,0008.85,0008.01
2022-08-04 14:23:00,,0829.2,5.00,0.00,29.8,28.7,00.0,38.6,31.8,29.8,0002.5,0014.61,0008.87,0008.04
2022-08-04 14:24:00,,0829.2,5.00,0.00,29.9,28.8,00.0,38.6,31.8,28.4,0002.5,0013.87,0008.84,0008.03
2022-08-04 14:25:00,,0829.3,5.01,0.00,29.9,28.9,00.0,38.7,31.9,28.3,0002.0,0013.77,0008.81,0008.03
2022-08-04 14:26:00,,0829.2,5.00,0.00,29.9,28.9,00.0,38.7,31.9,27.8,0002.2,0014.05,0008.78,0008.02
2022-08-04 14:27:00,,0829.2,4.99,0.00,29.9,28.6,00.0,38.7,31.8,28.6,0001.5,0014.15,0008.78,0008.03
2022-08-04 14:28:00,,0829.2,5.01,0.00,29.9,27.9,00.0,38.6,31.7,27.6,0001.4,0013.33,0008.81,0008.05
2022-08-04 14:29:00,,0829.2,4.98,0.00,29.9,27.7,00.0,38.6,31.7,27.7,0001.3,0013.85,0008.85,0008.06
2022-08-04 14:30:00,,0829.4,5.01,0.00,29.8,27.7,00.0,38.6,31.5,28.4,0001.5,0013.94,0008.87,0008.08
2022-08-04 14:31:00,,0829.3,5.01,0.00,29.8,27.8,00.0,38.6,31.5,28.5,0001.2,0014.08,0008.91,0008.12
2022-08-04 14:32:00,,0829.3,5.00,0.00,29.7,27.9,00.0,38.6,31.6,28.6,0001.0,0014.31,0008.92,0008.12
2022-08-04 14:33:00,,0829.3,4.99,0.00,29.7,28.1,00.0,38.6,31.6,28.7,0000.8,0014.55,0008.94,0008.14
2022-08-04 14:34:00,,0829.3,5.00,0.00,29.7,28.2,00.0,38.6,31.6,28.4,0000.7,0014.65,0008.93,0008.15
2022-08-04 14:35:00,,0829.4,5.00,0.00,29.7,28.3,00.0,38.6,31.7,28.4,0000.7,0014.67,0008.95,0008.18
2022-08-04 14:36:00,,0829.3,5.00,0.00,29.8,28.4,00.0,38.6,31.7,28.7,0001.2,0014.71,0008.96,0008.20
2022-08-04 14:37:00,,0829.4,5.00,0.00,29.8,28.5,00.0,38.6,31.8,28.4,0001.3,0014.39,0008.98,0008.21
2022-08-04 14:38:00,,0829.3,5.00,0.00,29.8,28.6,00.0,38.6,31.8,28.1,0002.1,0014.11,0009.01,0008.22
2022-08-04 14:39:00,,0829.3,5.00,0.00,29.8,28.7,00.0,38.6,31.8,28.3,0002.0,0014.19,0009.02,0008.22
2022-08-04 14:40:00,,0829.4,5.00,0.00,29.9,28.8,00.0,38.6,31.8,27.9,0001.9,0014.43,0009.03,0008.24
2022-08-04 14:41:00,,0829.4,4.98,0.00,29.9,28.8,00.0,38.6,31.8,28.5,0002.1,0014.82,0009.08,0008.25
2022-08-04 14:42:00,,0829.4,5.01,0.00,29.9,28.4,00.0,38.6,31.8,28.4,0002.3,0015.29,0009.08,0008.25
2022-08-04 14:43:00,,0829.3,5.00,0.00,29.9,27.8,00.0,38.6,31.7,28.4,0002.6,0015.13,0009.12,0008.26
2022-08-04 14:44:00,,0829.4,5.01,0.00,29.8,27.6,00.0,38.6,31.6,28.7,0002.5,0015.15,0009.17,0008.26
2022-08-04 14:45:00,,0829.4,4.99,0.00,29.8,27.7,00.0,38.5,31.5,29.0,0002.6,0014.80,0009.18,0008.25
2022-08-04 14:46:00,,0829.3,5.00,0.00,29.7,27.8,00.0,38.5,31.5,29.5,0002.8,0015.59,0009.22,0008.25
2022-08-04 14:47:00,,0829.3,5.01,0.00,29.7,27.9,00.0,38.5,31.5,29.4,0002.1,0015.68,0009.23,0008.24
2022-08-04 14:48:00,,0829.3,4.99,0.00,29.7,28.0,00.0,38.5,31.5,29.4,0001.9,0015.66,0009.23,0008.25
2022-08-04 14:49:00,,0829.3,5.00,0.00,29.7,28.2,00.0,38.5,31.6,29.4,0001.7,0016.38,0009.19,0008.24
2022-08-04 14:50:00,,0829.4,4.99,0.00,29.7,28.3,00.0,38.5,31.6,29.3,0001.8,0016.63,0009.16,0008.25
2022-08-04 14:51:00,,0829.2,5.00,0.00,29.7,28.4,00.0,38.5,31.6,29.2,0001.8,0016.35,0009.15,0008.25
2022-08-04 14:52:00,,0829.3,5.00,0.00,29.8,28.5,00.0,38.5,31.7,28.9,0001.5,0016.19,0009.13,0008.25
2022-08-04 14:53:00,,0829.2,5.00,0.00,29.8,28.6,00.0,38.6,31.7,29.4,0001.6,0015.86,0009.14,0008.24
2022-08-04 14:54:00,,0829.2,5.00,0.00,29.8,28.7,00.0,38.6,31.8,28.4,0001.6,0015.99,0009.13,0008.24
2022-08-04 14:55:00,,0829.2,5.01,0.00,29.8,28.7,00.0,38.6,31.8,28.5,0001.5,0015.85,0009.10,0008.23
2022-08-04 14:56:00,,0829.2,4.99,0.00,29.8,28.3,00.0,38.6,31.7,28.0,0001.4,0016.65,0009.14,0008.22
2022-08-04 14:57:00,,0829.2,5.00,0.00,29.8,27.7,00.0,38.5,31.5,28.7,0001.2,0017.22,0009.17,0008.21
2022-08-04 14:58:00,,0829.2,5.01,0.00,29.8,27.6,00.0,38.5,31.5,29.2,0001.3,0017.38,0009.24,0008.20
2022-08-04 14:59:00,,0829.2,4.99,0.00,29.7,27.6,00.0,38.5,31.5,30.1,0001.6,0017.56,0009.30,0008.22
